Location: Unspecified
(47.7670°N, 8.8522°E)
Time: 13:46:03
(UTC+01:00)

Envisat - Visible Passes

Search period start: 01 December 2022 00:00
Search period end: 11 December 2022 00:00
Orbit: 763 x 765 km, 98.2° (Epoch: 30 November)

Date Brightness Start Highest point End Pass type
(mag) Time Alt. Az. Time Alt. Az. Time Alt. Az.
01 Dec 4.3 04:55:57 10° NNE 04:58:26 29° N 04:58:26 29° N visible
01 Dec 4.7 06:36:45 10° NNW 06:38:37 14° NW 06:38:37 14° NW visible
02 Dec 5.0 04:19:04 10° NNE 04:20:50 21° NNE 04:20:50 21° NNE visible
02 Dec 4.3 05:58:36 10° N 06:01:00 21° NNW 06:01:00 21° NNW visible
02 Dec 6.0 17:19:12 10° WSW 17:21:32 13° W 17:23:53 10° WNW visible
03 Dec 5.8 03:42:40 10° NE 03:43:13 12° NE 03:43:13 12° NE visible
03 Dec 4.3 05:21:07 10° N 05:23:24 26° N 05:23:24 26° N visible
04 Dec 4.8 04:44:00 10° NNE 04:45:48 22° NNE 04:45:48 22° NNE visible
04 Dec 4.7 06:24:18 10° NNW 06:25:58 15° NW 06:25:58 15° NW visible
05 Dec 5.4 04:07:14 10° NNE 04:08:13 15° NNE 04:08:13 15° NNE visible
05 Dec 4.5 05:46:27 10° N 05:48:23 20° NNW 05:48:23 20° NNW visible
05 Dec 5.8 17:06:13 10° SW 17:09:25 17° W 17:12:38 10° NW visible
06 Dec 4.7 05:09:05 10° N 05:10:48 21° N 05:10:48 21° N visible
06 Dec 5.0 06:50:53 10° NW 06:50:58 10° NW 06:50:58 10° NW visible
07 Dec 5.2 04:32:04 10° NNE 04:33:14 17° NNE 04:33:14 17° NNE visible
07 Dec 4.7 06:12:00 10° NNW 06:13:24 15° NNW 06:13:24 15° NNW visible
08 Dec 5.8 03:55:27 10° NNE 03:55:39 11° NE 03:55:39 11° NE visible
08 Dec 4.7 05:34:20 10° N 05:35:50 19° N 05:35:50 19° N visible
09 Dec 5.0 04:57:05 10° NNE 04:58:16 17° N 04:58:16 17° N visible
09 Dec 5.0 06:37:59 10° NNW 06:38:27 11° NNW 06:38:27 11° NNW visible
10 Dec 5.5 04:20:11 10° NNE 04:20:43 13° NNE 04:20:43 13° NNE visible
10 Dec 4.8 05:59:46 10° N 06:00:54 15° NNW 06:00:54 15° NNW visible
10 Dec 6.0 17:20:34 10° WSW 17:22:41 12° W 17:24:49 10° WNW visible
